| time (UTC) | temp F | wind direction | speed knots | gust knots | rain 1hr in | rain 24hr in | rain mn in | humidity % | barometer mb |
| 20260505053008 | 51 | 78 | 6.1 | 0.0 | 0.00 | 0.00 | 0.00 | 44 | 1010.0 |
| 20260505051507 | 52 | 35 | 3.5 | 0.0 | 0.00 | 0.00 | 0.00 | 45 | 1009.6 |
| 20260505041601 | 54 | 92 | 4.3 | 0.0 | 0.00 | 0.00 | 0.00 | 44 | 1009.3 |
| 20260505040054 | 54 | 63 | 2.6 | 0.0 | 0.00 | 0.00 | 0.00 | 44 | 1009.1 |
| 20260505034531 | 55 | 70 | 0.9 | 0.0 | 0.00 | 0.00 | 0.00 | 44 | 1008.9 |
| 20260505033132 | 55 | 69 | 3.5 | 0.0 | 0.00 | 0.00 | 0.00 | 44 | 1008.8 |
| 20260505031506 | 56 | 77 | 2.6 | 0.0 | 0.00 | 0.00 | 0.00 | 44 | 1008.7 |
| 20260505030012 | 56 | 94 | 1.7 | 0.0 | 0.00 | 0.00 | 0.00 | 43 | 1008.3 |
| 20260505024521 | 57 | 67 | 4.3 | 0.0 | 0.00 | 0.00 | 0.00 | 42 | 1008.0 |
| 20260505023114 | 58 | 47 | 3.5 | 0.0 | 0.00 | 0.00 | 0.00 | 41 | 1007.8 |
| 20260505021555 | 58 | 26 | 4.3 | 0.0 | 0.00 | 0.00 | 0.00 | 40 | 1007.5 |
| 20260505020058 | 59 | 325 | 1.7 | 0.0 | 0.00 | 0.00 | 0.00 | 40 | 1007.2 |
| 20260505014536 | 60 | 66 | 3.5 | 0.0 | 0.00 | 0.00 | 0.00 | 39 | 1007.0 |
| 20260505013036 | 61 | 64 | 3.5 | 0.0 | 0.00 | 0.00 | 0.00 | 38 | 1006.8 |
| 20260505011527 | 63 | 22 | 3.5 | 0.0 | 0.00 | 0.00 | 0.00 | 36 | 1006.7 |
| 20260505010019 | 63 | 29 | 4.3 | 0.0 | 0.00 | 0.00 | 0.00 | 36 | 1006.5 |
| 20260505004520 | 63 | 65 | 1.7 | 0.0 | 0.00 | 0.00 | 0.00 | 37 | 1006.5 |
| 20260505003008 | 63 | 63 | 2.6 | 0.0 | 0.00 | 0.00 | 0.00 | 38 | 1006.6 |
| 20260505001507 | 63 | 78 | 2.6 | 0.0 | 0.00 | 0.00 | 0.00 | 37 | 1006.5 |
| 20260505000011 | 64 | 67 | 4.3 | 0.0 | 0.00 | 0.00 | 0.00 | 38 | 1006.3 |
| 20260504234507 | 65 | 32 | 3.5 | 0.0 | 0.00 | 0.00 | 0.00 | 39 | 1006.1 |
| 20260504233006 | 66 | 18 | 2.6 | 0.0 | 0.00 | 0.00 | 0.00 | 38 | 1006.0 |
| 20260504231516 | 66 | 74 | 3.5 | 0.0 | 0.00 | 0.00 | 0.00 | 36 | 1005.9 |
| 20260504230049 | 66 | 74 | 2.6 | 0.0 | 0.00 | 0.00 | 0.00 | 37 | 1005.8 |
| 20260504224536 | 67 | 134 | 3.5 | 0.0 | 0.00 | 0.00 | 0.00 | 35 | 1005.9 |
| 20260504223035 | 67 | 43 | 3.5 | 0.0 | 0.00 | 0.00 | 0.00 | 36 | 1005.9 |
| 20260504221552 | 67 | 98 | 3.5 | 0.0 | 0.00 | 0.00 | 0.00 | 35 | 1005.8 |
| 20260504220030 | 67 | 147 | 2.6 | 0.0 | 0.00 | 0.00 | 0.00 | 38 | 1005.9 |
| 20260504214530 | 65 | 38 | 1.7 | 0.0 | 0.00 | 0.00 | 0.00 | 38 | 1005.9 |
| 20260504213029 | 65 | 148 | 3.5 | 0.0 | 0.00 | 0.00 | 0.00 | 35 | 1006.0 |
| 20260504211544 | 66 | 127 | 3.5 | 0.0 | 0.00 | 0.00 | 0.00 | 36 | 1006.1 |
| 20260504210054 | 67 | 163 | 3.5 | 0.0 | 0.00 | 0.00 | 0.00 | 35 | 1006.1 |
| 20260504204622 | 67 | 230 | 3.5 | 0.0 | 0.00 | 0.00 | 0.00 | 35 | 1006.1 |
| 20260504203042 | 67 | 175 | 3.5 | 0.0 | 0.00 | 0.00 | 0.00 | 40 | 1006.3 |
| 20260504201540 | 66 | 72 | 2.6 | 0.0 | 0.00 | 0.00 | 0.00 | 38 | 1006.4 |
| 20260504200041 | 66 | 89 | 3.5 | 0.0 | 0.00 | 0.00 | 0.00 | 36 | 1006.4 |
| 20260504194547 | 66 | 65 | 3.5 | 0.0 | 0.00 | 0.00 | 0.00 | 36 | 1006.5 |
| 20260504193036 | 66 | 136 | 2.6 | 0.0 | 0.00 | 0.00 | 0.00 | 38 | 1006.5 |
| 20260504191533 | 64 | 66 | 2.6 | 0.0 | 0.00 | 0.00 | 0.00 | 41 | 1006.7 |
| 20260504190009 | 64 | 83 | 1.7 | 0.0 | 0.00 | 0.00 | 0.00 | 40 | 1006.9 |
| 20260504184608 | 63 | 54 | 1.7 | 0.0 | 0.00 | 0.00 | 0.00 | 40 | 1007.1 |
| 20260504183102 | 63 | 46 | 2.6 | 0.0 | 0.00 | 0.00 | 0.00 | 39 | 1007.1 |
| 20260504181556 | 63 | 88 | 3.5 | 0.0 | 0.00 | 0.00 | 0.00 | 39 | 1007.1 |
| 20260504180100 | 62 | 59 | 4.3 | 0.0 | 0.00 | 0.00 | 0.00 | 41 | 1007.3 |
| 20260504174505 | 62 | 75 | 4.3 | 0.0 | 0.00 | 0.00 | 0.00 | 40 | 1007.4 |
| 20260504173002 | 62 | 69 | 3.5 | 0.0 | 0.00 | 0.00 | 0.00 | 40 | 1007.5 |
| 20260504171503 | 61 | 71 | 2.6 | 0.0 | 0.00 | 0.00 | 0.00 | 40 | 1007.7 |
| 20260504081558 | 52 | 16 | 1.7 | 0.0 | 0.00 | 0.00 | 0.00 | 58 | 1005.6 |